Regional Weather Roundup
Issued by NWS

Home | Current Version | Previous Version | Graphics & Text | Print | Product List | Glossary On
Versions: 1 2 3 4 5 6 7 8 9 10 11 12 13 14 15 16 17 18 19 20 21 22 23 24 25 26 27 28 29 30 31 32 33 34 35 36 37 38 39 40 41 42 43 44 45 46 47 48 49 50
000
ASUS43 KFSD 030110
RWRSD

WEATHER ROUNDUP FOR SOUTH DAKOTA
NATIONAL WEATHER SERVICE SIOUX FALLS SD
700 PM CST FRI DEC 02 2016

NOTE: "FAIR" INDICATES FEW OR NO CLOUDS BELOW 12,000 FEET WITH NO
SIGNIFICANT WEATHER AND/OR OBSTRUCTIONS TO VISIBILITY.


SDZ001>005-009-010-012>017-030200-
NORTHWEST AND NORTH CENTRAL SOUTH DAKOTA

CITY           SKY/WX    TMP DP  RH WIND       PRES   REMARKS
BUFFALO          N/A     29  26  89 SW6       30.08F WCI  23
FAITH            N/A     22  21  96 S8        30.18F WCI  12
MOBRIDGE       CLOUDY    29  23  78 E7        30.21F WCI  22
$$

SDZ012>016-024>037-041>051-057-063-072>074-030200-
SOUTHWEST AND SOUTH CENTRAL SOUTH DAKOTA

CITY           SKY/WX    TMP DP  RH WIND       PRES   REMARKS
RAPID CTY ARPT CLEAR     25  22  88 CALM      30.19S
PIERRE         CLEAR     25  22  88 SE3       30.25S
CUSTER         PTCLDY    26  16  65 S3        30.13R
ELLSWORTH AFB  CLEAR     29  26  87 SE3       30.18S
PHILIP         CLEAR     24  22  91 CALM      30.24R
PINE RIDGE     CLEAR     26  22  84 NE3       30.20R
SPEARFISH      FAIR      25  16  68 E3        30.16R
WINNER         FAIR      30  24  78 S7        30.26R WCI  23
$$

SDZ004>011-016>023-039-040-030200-
NORTHEAST SOUTH DAKOTA

CITY           SKY/WX    TMP DP  RH WIND       PRES   REMARKS
ABERDEEN       CLOUDY    28  18  66 W5        30.30S WCI  23
WATERTOWN      CLOUDY    24  17  74 NW3       30.27S
BROOKINGS      FLURRIES  26  21  81 NW7       30.28R WCI  18
SISSETON         N/A     27  19  72 NW5       30.30S WCI  22
$$

SDZ017-020-022-023-036>040-048>070-030200-
SOUTHEAST SOUTH DAKOTA

CITY           SKY/WX    TMP DP  RH WIND       PRES   REMARKS
SIOUX FALLS    CLOUDY    30  24  78 N5        30.30R WCI  25
HURON          CLOUDY    29  26  89 NE3       30.30S
CHAMBERLAIN    CLEAR     29  29  99 CALM      30.28R
MITCHELL       CLOUDY    31  26  82 CALM      30.31S
YANKTON        CLOUDY    34  27  75 CALM      30.31S
$$

ABBREVIATIONS USED IN REMARKS
   TC - TEMPERATURE IN CELSIUS
  WCI - WIND CHILL INDEX
   HX - HEAT INDEX
  VSB - VISIBILITY





USA.gov is the U.S. government's official web portal to all federal, state and local government web resources and services.